Location: Amsterdam
(30.7274°N, 84.4357°W)
Time: 12:17:57
(UTC+00:00)

Tiros 1 - Pass Details

Date: 23 February 2026
Orbit: 618 x 650 km, 48.4° (Epoch: 16 March)

Event Time Altitude Azimuth Distance (km) Brightness Sun altitude
Rises 18:24:29 0° 314° (NW) 2,890 10.3 48.9°
Reaches altitude 10° 18:26:49 10° 317° (NW) 1,979 9.5 48.7°
Maximum altitude 18:31:19 63° 39° (NE) 690 7.7 48.5°
Drops below altitude 10° 18:35:48 10° 121° (ESE) 1,969 9.9 48.2°
Sets 18:38:08 0° 124° (SE) 2,873 10.6 48.1°
